DW5678 Kavala GR current weather conditions

sailwx.info

Wind from 200 at 0 knots gusting 5

Air temperature 29.4° C
Dewpoint 18.5° C

Last reported at 2016-Jun-26 14:15 UTC.
Time now 2016-Jun-26 15:38 UTC

Location: N 40°56' E 024°24'.
View on Google Maps.

See reports from other nearby stations

  
Tides and Currents Weather Stations Pressure Air Temp Water Temp Dewpoint Dewpoint Depression Visibility Wind Speed Wind Dir Waves Ship Positions
date/time (UTC)wind fromknots sea level pressurealtimeterstation pressurevisibilityair tempwater tempwave heightnotes
2016-Jun-26 14:15 200 0 gusting 5 29.4
2016-Jun-26 14:00 225 1 gusting 5 29.4
2016-Jun-26 13:00 171 0 gusting 5 30.0
2016-Jun-26 12:30 201 1 gusting 6 28.9
2016-Jun-26 12:15 129 2 gusting 5 28.9
2016-Jun-26 11:00 150 1 gusting 5 28.9
2016-Jun-26 10:01 159 2 gusting 6 28.9
2016-Jun-26 09:01 008 0 gusting 5 28.3
2016-Jun-26 08:45 074 0 gusting 2 27.8
2016-Jun-26 08:30 123 1 gusting 2 27.8
2016-Jun-26 08:01 242 1 gusting 5 27.2
2016-Jun-26 07:30 311 27.2
2016-Jun-26 07:15 248 0 gusting 5 27.8
2016-Jun-26 07:01 009 2 gusting 7 27.8
2016-Jun-26 06:45 324 4 gusting 11 27.2
2016-Jun-26 06:30 26.7
2016-Jun-26 06:01 266 1 gusting 6 26.1
2016-Jun-26 05:45 318 5 gusting 8 25.0
2016-Jun-26 05:30 192 4 gusting 13 24.4
2016-Jun-26 05:15 275 4 gusting 10 25.0
2016-Jun-26 04:30 263 4 gusting 8 25.6
2016-Jun-26 04:01 052 1 gusting 8 26.1
2016-Jun-26 03:45 012 2 gusting 11 26.7
2016-Jun-26 03:15 332 2 gusting 7 26.7
2016-Jun-26 03:01 337 4 gusting 7 26.7
2016-Jun-26 02:00 330 2 gusting 7 26.1
2016-Jun-26 01:15 315 1 gusting 6 26.1
2016-Jun-25 23:30 343 1 gusting 5 26.7
2016-Jun-25 23:00 344 0 gusting 7 27.2
2016-Jun-25 22:45 039 1 gusting 8 27.2
2016-Jun-25 22:30 074 1 gusting 6 27.2
2016-Jun-25 22:15 010 0 gusting 6 27.2
2016-Jun-25 22:00 358 2 gusting 6 27.2
2016-Jun-25 21:45 030 3 gusting 13 27.2
2016-Jun-25 21:30 084 4 gusting 13 27.2
2016-Jun-25 21:15 061 4 gusting 12 27.2
2016-Jun-25 20:30 005 27.8
2016-Jun-25 20:15 055 0 gusting 6 27.8
2016-Jun-25 19:00 048 2 gusting 11 28.9
2016-Jun-25 18:45 047 2 gusting 11 29.4
2016-Jun-25 18:15 085 5 gusting 12 29.4
2016-Jun-25 18:01 001 3 gusting 14 30.0
2016-Jun-25 17:30 025 6 gusting 15 30.6
2016-Jun-25 17:15 063 5 gusting 15 30.6
2016-Jun-25 16:30 083 6 gusting 15 31.7
2016-Jun-25 16:15 107 6 gusting 12 32.2
2016-Jun-25 16:00 071 4 gusting 14 32.2
2016-Jun-25 15:45 044 5 gusting 14 32.8
2016-Jun-25 15:15 140 6 gusting 13 32.8
2016-Jun-25 15:00 072 4 gusting 13 32.8
2016-Jun-25 14:45 041 6 gusting 15 32.8
2016-Jun-25 14:30 107 4 gusting 12 32.8
2016-Jun-25 14:15 103 2 gusting 13 32.8
2016-Jun-25 14:00 077 5 gusting 12 32.8
2016-Jun-25 13:45 065 5 gusting 10 33.3
2016-Jun-25 13:30 110 2 gusting 15 33.3
2016-Jun-25 13:15 100 4 gusting 10 33.3
2016-Jun-25 13:00 103 6 gusting 13 33.3
2016-Jun-25 12:30 088 4 gusting 14 32.8
2016-Jun-25 12:00 064 4 gusting 13 32.8
2016-Jun-25 11:45 090 4 gusting 11 32.8
2016-Jun-25 11:30 025 2 gusting 12 32.2
2016-Jun-25 11:15 089 4 gusting 12 32.2
2016-Jun-25 11:00 156 4 gusting 10 32.2
2016-Jun-25 10:30 087 4 gusting 10 32.2
2016-Jun-25 10:15 094 2 gusting 8 32.2
2016-Jun-25 10:00 104 4 gusting 10 32.2
2016-Jun-25 09:45 057 2 gusting 10 31.7
2016-Jun-25 09:30 101 3 gusting 6 32.2
2016-Jun-25 09:00 141 2 gusting 8 31.7
2016-Jun-25 08:45 127 4 gusting 8 31.1
2016-Jun-25 08:15 058 2 gusting 8 31.1
2016-Jun-25 08:00 093 5 gusting 8 31.1
2016-Jun-25 07:45 086 3 gusting 13 30.6
2016-Jun-25 07:30 114 2 gusting 12 30.6
2016-Jun-25 07:15 024 4 gusting 10 30.0
2016-Jun-25 07:00 075 5 gusting 8 29.4
2016-Jun-25 06:45 088 0 gusting 6 29.4
2016-Jun-25 06:15 180 0 gusting 5 28.3
2016-Jun-25 06:00 105 0 gusting 5 27.2
2016-Jun-25 05:45 133 1 gusting 5 27.8
2016-Jun-25 05:30 111 27.8
2016-Jun-25 05:00 049 0 gusting 4 27.2
2016-Jun-25 04:45 123 27.2
2016-Jun-25 03:45 254 0 gusting 4 26.7
2016-Jun-25 03:30 229 26.7
2016-Jun-25 03:00 005 26.7
2016-Jun-25 02:15 284 0 gusting 4 26.7
2016-Jun-25 02:00 298 26.7
2016-Jun-25 01:30 273 26.7
2016-Jun-25 01:15 311 27.2
2016-Jun-25 00:45 028 27.8
2016-Jun-25 00:30 024 27.8
2016-Jun-25 00:15 27.8
2016-Jun-25 00:00 025 0 gusting 6 27.8
2016-Jun-24 23:45 071 28.3
2016-Jun-24 23:15 293 2 gusting 6 28.9
2016-Jun-24 23:00 096 1 gusting 7 29.4
2016-Jun-24 22:15 332 0 gusting 12 30.0
2016-Jun-24 21:45 026 3 gusting 11 30.0
2016-Jun-24 21:30 055 5 gusting 11 30.0
2016-Jun-24 20:45 036 1 gusting 6 30.6
2016-Jun-24 20:30 073 1 gusting 10 30.6
2016-Jun-24 20:15 352 3 gusting 11 30.6
2016-Jun-24 20:00 083 1 gusting 7 31.1
2016-Jun-24 19:45 046 1 gusting 7 31.1
2016-Jun-24 19:30 043 3 gusting 12 31.1
2016-Jun-24 19:15 029 5 gusting 13 31.1
2016-Jun-24 19:00 043 5 gusting 13 31.7
2016-Jun-24 18:30 052 2 gusting 10 32.2
2016-Jun-24 18:15 063 4 gusting 13 32.2
2016-Jun-24 18:00 056 3 gusting 8 32.2
2016-Jun-24 17:30 040 0 gusting 10 32.8
2016-Jun-24 17:15 100 4 gusting 8 33.3
2016-Jun-24 17:00 110 4 gusting 11 33.3
2016-Jun-24 16:30 086 3 gusting 11 33.3
2016-Jun-24 16:15 030 6 gusting 15 33.9
2016-Jun-24 16:00 055 4 gusting 12 34.4
2016-Jun-24 15:45 043 3 gusting 8 34.4
2016-Jun-24 15:30 025 4 gusting 14 34.4
2016-Jun-24 15:15 139 6 gusting 13 35.0
2016-Jun-24 15:00 064 6 gusting 13 35.0